User: anonymous   Login
Location: Unspecified
(0.0000°N, 0.0000°E)
Time: 01:09:29
(UTC+00:00)
Language:

ONEWEB-0519 - Orbit

View from above orbital plane
View from above orbital plane
View from above satellite
View from above satellite

Ground track
Ground track

The orbit is defined by the following mean orbital elements,

1 54137U          26145.42587044 +.00000000 +00000-0 +71052-4 0 00004
2 54137  87.9162 309.5012 0001992  92.1265 268.0096 13.19722151    04
Epoch (UTC): 25 May 2026 10:13:15
Eccentricity: 0.0001992
inclination: 87.9162°
perigee height: 1184 km
apogee height: 1187 km
right ascension of ascending node: 309.5012°
argument of perigee: 92.1265°
revolutions per day: 13.19722151
mean anomaly at epoch: 268.0096°

The dashed part of the orbit path shows where the satellite is in the earth's shadow,  

DLR